GEFSMW_500_meanwind_162.txt.gz
Wind_Speed
12 12 11 9 8 8 9 9 9 10 10 10 10 9 8 9 10 11 12 11 11 12 13 13 12 12 12 11 11 11 10 9 8 8 8 7 6 6 6 6 5 5 5
13 13 11 9 9 10 10 9 10 10 11 11 11 10 9 9 11 11 12 12 12 12 13 14 13 13 13 13 12 12 12 11 10 10 9 8 8 7 7 7 7 7 7
13 13 11 10 10 10 10 10 10 11 12 12 12 11 10 10 11 13 13 13 13 14 14 15 15 15 15 14 14 13 13 13 12 12 11 10 10 9 9 9 9 9 9
13 14 12 11 11 11 11 11 11 13 13 13 12 12 11 12 12 12 13 13 13 14 15 15 15 15 16 16 16 15 15 14 14 14 13 12 12 11 11 10 11 10 10
13 14 13 11 11 11 12 13 13 14 14 13 13 13 12 11 11 11 12 12 12 13 14 15 16 16 17 18 17 17 17 16 16 16 15 15 14 14 13 12 12 12 12
13 14 12 11 11 12 13 13 14 14 14 13 13 12 11 10 10 10 11 11 12 13 14 15 17 16 17 18 19 19 18 18 17 17 17 17 16 16 15 15 15 15 14
14 13 12 12 13 13 14 14 15 15 15 13 12 12 12 11 9 9 10 11 12 13 14 14 16 16 17 18 18 19 19 19 19 18 18 18 18 18 17 17 17 17 16
14 13 13 13 14 14 14 14 14 14 14 14 13 12 11 11 10 10 10 10 11 12 14 14 15 16 17 17 18 18 19 19 19 19 19 19 19 18 18 19 19 19 18
13 14 13 13 13 13 14 14 13 13 13 13 12 11 10 9 10 10 10 11 12 12 13 14 15 16 17 18 19 20 19 19 19 19 19 20 20 20 20 20 20 20 20
12 12 11 12 12 13 13 13 12 12 12 11 10 9 8 8 9 9 9 10 12 13 14 14 15 16 18 19 19 20 20 20 20 21 21 21 21 21 21 21 21 21 21
12 12 11 11 12 12 12 11 10 10 10 9 9 8 8 9 9 9 9 10 11 13 14 15 15 16 17 19 20 20 20 20 20 21 21 21 22 22 23 23 23 23 24
13 12 11 10 11 12 11 10 9 9 9 9 8 8 8 8 8 9 9 10 11 12 13 15 16 17 17 18 19 20 20 21 21 21 22 22 23 23 23 23 24 24 25
12 12 11 11 11 11 10 10 10 9 9 9 8 8 9 7 8 9 9 9 10 10 12 13 14 15 17 17 18 18 19 20 20 22 22 22 22 23 23 24 25 25 25
14 13 12 12 12 11 11 11 10 9 9 8 8 8 8 8 8 9 10 10 10 11 12 12 13 14 15 16 17 17 19 20 20 22 23 23 23 23 24 25 26 27 27
15 15 15 14 12 11 11 10 10 9 8 8 8 8 9 8 9 9 9 10 10 11 11 12 12 12 13 14 16 17 18 19 20 21 22 23 23 24 24 26 27 28 29
15 16 16 13 13 13 10 9 9 9 8 8 8 9 9 9 9 10 11 11 11 11 11 11 12 12 13 14 15 16 16 17 19 20 21 21 23 24 25 26 28 28 28
16 16 14 14 14 13 11 10 10 9 9 8 9 9 10 10 11 11 11 11 11 11 11 11 12 13 13 14 15 16 17 18 20 21 22 23 23 24 25 26 27 27 27
16 15 14 14 14 13 11 11 11 10 10 10 10 10 10 11 11 11 11 11 11 10 10 10 11 12 13 14 15 17 18 19 20 21 22 23 24 25 25 26 26 27 28
16 15 14 14 13 12 12 12 12 11 12 11 11 11 11 11 12 12 12 12 11 11 11 12 13 13 13 14 15 16 18 19 20 21 22 24 24 25 26 27 28 28 28
17 16 15 13 13 13 13 13 13 12 12 12 12 12 12 12 12 12 13 13 12 12 12 13 14 14 15 16 17 17 18 18 19 21 22 24 25 26 27 27 28 28 29
16 14 14 13 13 13 13 13 13 13 13 13 13 13 13 13 14 14 14 14 14 14 14 14 14 14 15 16 17 18 19 20 21 22 23 24 25 26 27 28 28 29 30
15 15 14 13 13 13 14 14 14 14 14 14 14 14 14 14 15 15 15 15 15 15 15 15 15 15 16 16 17 18 19 20 21 22 22 23 24 25 26 27 28 30 30
17 16 15 15 15 15 16 15 15 15 15 15 16 16 15 15 15 15 15 15 15 16 16 16 16 17 17 18 19 19 20 20 20 21 23 24 25 26 27 28 29 30 30
17 16 16 16 16 17 17 17 17 17 17 16 17 16 16 16 17 17 16 16 17 17 17 17 18 18 19 19 20 20 21 21 22 22 24 25 25 26 27 28 29 30 31
17 17 17 17 18 18 17 17 17 17 17 17 17 18 18 18 18 18 18 18 17 18 18 19 20 20 20 20 21 21 22 22 23 24 25 25 26 27 28 29 30 31 32
19 19 19 19 18 19 19 18 18 18 18 18 18 18 18 18 18 18 17 17 18 19 19 20 21 21 21 21 21 21 22 23 24 25 25 27 27 28 29 30 31 32 33

GEFSMW_500_meanwind_168.txt.gz
Wind_Speed
10 10 9 9 9 9 9 9 8 8 8 8 8 9 9 8 9 9 10 11 11 11 11 12 12 12 12 11 10 10 10 10 9 8 7 7 7 6 6 6 6 6 6
9 10 11 9 9 10 9 9 8 9 9 9 10 10 9 9 10 10 11 12 12 13 13 14 14 13 13 13 12 12 11 11 11 10 9 9 8 8 8 8 8 8 8
10 10 11 10 10 10 10 9 9 10 11 11 11 10 10 11 10 11 12 13 13 14 15 15 15 15 14 14 14 13 13 13 13 12 12 11 11 10 10 10 10 10 10
11 11 12 11 10 10 10 10 10 11 11 12 12 12 12 12 12 11 11 12 13 14 14 14 15 15 16 16 16 16 15 15 14 14 14 14 14 13 13 13 12 12 12
12 12 12 12 11 10 10 10 10 11 12 12 13 13 13 13 12 12 12 11 13 13 14 14 14 15 16 17 17 17 18 17 17 16 16 16 16 16 16 15 15 15 14
13 13 12 12 12 11 10 11 11 12 13 13 13 14 13 11 10 11 11 12 13 12 13 13 15 16 16 17 17 18 19 19 18 18 18 18 18 18 18 18 17 17 17
12 13 13 12 12 12 12 12 12 13 13 13 13 13 12 11 10 10 10 11 12 12 13 13 14 15 16 17 17 18 19 20 20 20 20 20 20 20 19 20 20 20 20
11 12 12 13 13 13 13 13 13 13 13 13 13 13 12 11 11 11 11 11 12 13 14 14 15 15 16 17 18 19 20 20 21 21 21 21 21 21 21 21 21 21 21
11 11 12 13 13 12 12 13 13 13 13 14 13 13 12 11 10 10 11 11 11 12 13 14 16 16 16 17 18 19 20 21 21 22 22 22 23 23 23 22 22 23 23
12 12 13 13 13 13 13 13 13 13 13 13 13 13 12 10 9 10 10 11 12 13 13 15 16 16 16 17 17 18 19 21 21 22 23 23 23 23 23 24 23 23 24
12 12 12 13 13 13 12 12 12 12 12 12 12 12 11 10 9 9 9 11 11 12 13 15 16 16 17 18 18 19 20 21 21 22 23 24 23 23 24 24 24 25 25
12 11 12 13 12 12 11 11 12 12 12 11 11 10 10 10 10 9 10 11 11 12 14 14 14 15 17 18 19 20 20 21 22 22 22 23 24 24 24 24 25 26 26
12 11 12 12 12 11 11 11 11 11 11 11 10 10 10 9 9 9 9 10 11 13 13 13 14 15 16 17 18 19 20 21 22 22 22 23 23 23 24 24 26 26 27
12 12 12 12 12 11 10 11 11 10 11 11 11 11 10 10 10 10 10 10 11 12 12 12 13 14 15 16 17 18 19 19 20 21 22 22 23 24 24 26 27 28 29
13 13 13 12 12 11 11 11 11 11 11 11 11 11 10 10 10 10 11 12 13 13 13 13 14 14 15 15 16 16 18 18 19 20 21 23 23 24 25 26 27 29 29
13 12 12 11 12 11 12 12 12 11 12 12 11 11 11 10 10 10 11 12 13 14 14 14 14 14 14 14 15 15 16 17 18 19 21 22 23 24 26 27 28 29 29
13 13 12 12 12 13 13 13 12 12 11 10 10 10 9 9 10 10 11 12 12 13 13 14 15 15 15 14 15 15 16 17 18 19 21 23 24 25 26 26 27 28 28
15 14 14 14 14 14 14 13 13 13 11 10 9 9 9 10 11 11 12 12 13 13 13 12 13 12 12 12 13 15 16 17 18 19 21 22 23 25 25 26 27 28 29
15 15 16 16 15 14 14 13 13 12 11 10 10 10 11 11 11 12 12 13 13 12 11 12 12 13 13 14 14 16 17 18 19 21 21 22 23 24 26 27 28 29 30
17 17 16 16 16 15 13 12 12 12 11 11 11 11 12 12 13 13 13 12 12 12 13 13 13 14 15 15 15 17 18 19 20 20 21 22 23 23 25 26 27 29 31
17 17 17 17 17 15 13 13 12 13 13 13 12 13 13 13 13 13 13 13 14 14 15 15 15 15 16 16 17 18 18 19 20 21 22 23 24 25 25 27 28 29 30
18 17 17 16 16 16 14 14 14 13 14 14 13 13 14 14 14 15 15 15 15 16 16 17 17 17 17 18 18 18 19 20 21 22 23 24 24 25 25 27 28 29 30
20 18 17 17 17 15 15 15 14 14 14 14 14 15 15 16 16 16 17 17 18 18 18 19 19 19 19 19 20 21 21 22 23 24 24 25 25 26 27 28 29 30 31
20 17 17 17 16 16 15 15 15 15 15 15 15 16 17 17 17 17 17 18 19 19 19 20 20 21 21 22 22 22 23 23 24 25 26 26 27 28 28 29 29 30 31
21 20 19 17 16 16 15 16 16 16 16 16 16 16 17 18 18 19 19 19 19 20 20 20 21 22 22 22 23 23 24 25 26 26 27 28 28 29 29 30 31 32 32
21 20 19 18 18 17 16 16 17 17 16 16 16 17 18 18 19 19 19 19 19 20 21 21 22 22 23 24 24 25 26 27 27 28 29 29 29 30 31 31 32 33 34

GEFSMW_500_meanwind_174.txt.gz
Wind_Speed
7 7 7 7 7 7 8 7 7 8 8 7 7 7 7 7 7 8 8 9 10 11 11 11 11 11 11 11 10 9 9 9 9 9 9 9 8 7 7 7 6 7 7
7 7 7 8 8 8 9 9 9 9 9 9 8 8 9 9 9 9 10 10 10 11 11 12 11 11 12 12 11 11 11 11 11 10 10 10 10 10 9 9 9 8 8
9 9 9 10 10 10 11 11 11 10 10 10 11 11 10 10 10 10 10 10 11 12 12 12 12 12 12 12 13 13 12 12 12 12 12 12 12 12 11 11 11 10 10
9 10 10 11 11 11 12 12 11 11 11 11 13 13 12 11 11 11 11 10 11 12 11 12 13 13 12 12 14 14 14 14 14 13 13 13 13 13 13 13 13 13 13
10 11 11 11 12 12 12 12 12 11 12 13 14 14 14 13 12 12 12 12 12 13 13 13 13 13 13 13 14 15 16 15 15 15 15 15 15 16 16 16 15 15 15
10 11 11 11 12 12 13 13 12 12 14 14 14 13 13 14 14 13 13 12 12 13 14 14 14 14 14 14 15 15 16 17 17 18 17 17 17 18 18 18 18 18 18
11 11 11 11 12 13 14 13 12 13 13 14 14 14 14 14 14 14 13 13 13 13 13 14 14 15 15 15 16 17 18 18 18 19 19 19 19 20 20 20 20 20 20
12 12 11 11 12 13 14 14 12 12 13 13 13 14 14 15 15 14 14 12 12 12 13 13 14 14 15 16 17 17 18 19 19 19 20 21 21 22 22 22 22 22 23
14 13 13 13 13 14 14 14 13 13 13 14 14 15 15 15 14 14 13 12 11 12 12 12 13 14 15 16 17 18 19 19 20 20 21 21 22 23 23 23 23 24 24
14 14 14 14 14 14 14 14 14 14 14 14 14 15 15 14 13 13 12 12 11 12 12 13 14 14 15 16 17 18 19 19 20 20 21 22 22 23 23 24 24 24 25
14 14 14 14 14 14 14 14 14 14 15 15 15 14 14 14 13 13 13 12 12 13 13 13 13 14 15 16 17 19 20 20 20 21 21 21 21 22 24 25 25 25 25
14 14 14 14 14 14 13 13 14 14 15 15 15 15 14 14 14 13 13 12 11 12 13 13 13 14 15 16 17 19 20 21 20 21 21 22 22 23 23 24 24 24 25
14 14 14 14 14 14 14 14 14 15 15 15 16 16 15 14 14 13 12 12 12 12 13 13 14 14 15 16 17 18 18 19 19 20 21 22 22 22 23 23 24 25 25
14 14 14 14 14 15 15 15 15 15 15 15 15 16 15 14 13 13 13 12 12 13 14 14 15 15 15 16 16 16 17 18 19 20 21 21 21 21 22 23 24 24 25
15 15 15 15 15 15 15 15 15 14 14 14 15 15 14 13 13 13 13 13 13 14 15 15 14 15 15 16 16 16 17 17 18 19 20 21 21 22 23 23 24 25 26
16 16 16 15 15 15 15 15 14 14 14 14 14 14 13 13 13 12 12 13 13 14 14 15 15 15 16 16 17 17 17 18 18 19 19 20 20 21 23 23 24 25 26
16 16 17 16 16 16 16 16 15 15 15 15 14 14 14 13 13 13 13 13 14 15 16 16 16 16 16 17 17 17 18 19 19 19 19 20 20 21 22 23 24 25 26
16 17 17 17 17 16 16 16 16 16 15 15 14 14 13 13 12 13 13 13 14 14 14 15 15 16 16 16 16 17 18 18 18 19 19 20 20 21 22 23 24 25 27
17 17 18 17 17 17 17 17 17 17 15 15 14 14 13 13 13 13 13 14 14 14 14 15 15 16 16 16 16 17 16 17 18 19 20 20 21 21 23 25 26 27 28
19 19 19 19 19 18 18 18 18 17 16 15 15 15 14 14 14 14 14 15 15 15 16 16 17 17 17 17 18 17 17 18 19 19 20 21 21 22 24 25 26 26 27
20 20 20 20 19 19 18 19 19 18 17 17 16 16 16 16 15 15 15 16 16 16 16 17 17 18 18 19 19 19 20 20 21 21 22 22 23 24 25 26 26 27 27
21 21 21 20 20 19 19 19 19 18 17 17 16 16 16 16 17 17 17 17 17 17 17 18 18 19 19 20 20 20 20 21 22 23 23 24 24 26 26 26 27 28 29
23 22 21 21 20 19 19 19 19 19 18 17 17 17 17 18 18 18 18 18 18 18 19 19 19 20 21 21 21 21 22 22 23 24 24 25 26 26 27 27 28 28 29
23 22 21 21 20 20 19 19 19 19 19 19 18 19 19 19 19 19 19 19 19 20 20 20 21 21 21 22 22 23 23 24 25 25 25 26 26 28 28 29 29 30 30
23 22 22 21 21 20 20 20 20 19 19 20 20 20 20 19 19 20 20 20 21 21 21 21 21 22 22 23 24 24 25 25 25 26 27 27 28 28 29 29 30 31 31
23 23 23 22 22 21 21 21 20 20 21 21 21 20 20 20 20 20 21 21 22 22 22 22 22 23 24 25 25 26 26 26 27 28 28 28 29 29 29 30 31 32 33

GEFSMW_500_meanwind_180.txt.gz
Wind_Speed
11 11 11 11 11 12 12 12 11 11 11 11 12 11 10 10 10 10 9 9 9 9 10 9 9 9 10 10 10 9 9 9 9 9 9 9 9 9 9 9 8 8 8
12 12 11 12 12 12 13 13 14 13 12 13 13 12 11 11 11 11 11 9 10 9 9 9 8 8 10 10 10 11 11 11 11 11 11 10 10 11 11 11 11 11 10
12 12 11 12 12 12 13 13 15 14 13 13 13 12 11 12 12 11 11 10 10 10 9 9 9 9 10 11 12 12 12 12 12 12 11 11 12 12 12 12 12 12 12
13 12 11 12 12 13 13 14 15 15 15 15 13 12 12 13 13 12 12 11 11 11 10 9 9 10 11 12 12 13 13 14 13 13 13 13 13 14 14 14 14 14 14
13 13 12 12 13 13 14 15 15 16 16 15 14 13 13 13 14 13 12 11 11 11 10 10 11 11 11 12 13 14 15 15 15 15 15 15 15 15 16 16 17 16 16
14 13 13 13 14 14 14 15 15 16 16 16 15 14 14 14 15 14 14 12 12 11 11 11 12 12 13 13 14 14 15 16 16 16 16 17 17 18 18 18 18 18 18
14 14 14 13 14 15 15 15 16 16 17 17 17 15 14 15 15 15 14 13 13 12 11 11 12 12 13 13 14 15 15 16 16 17 18 19 19 20 20 19 19 20 20
14 15 15 14 14 15 16 16 16 16 17 17 17 17 15 15 15 15 14 14 13 13 12 12 12 13 13 14 15 16 15 16 17 18 19 19 20 20 21 21 21 21 21
15 15 15 14 15 15 16 16 16 17 16 17 17 17 16 15 15 15 15 14 14 13 12 12 12 12 13 14 15 15 15 16 17 18 19 20 21 20 20 21 22 22 22
15 15 16 15 15 15 16 17 17 17 16 16 17 18 17 17 16 16 15 15 15 15 13 13 13 12 12 13 13 14 15 16 17 19 20 21 22 22 21 22 23 23 23
16 15 17 16 13 15 17 17 17 17 17 17 17 17 18 18 17 16 16 16 16 15 14 14 13 12 12 12 13 14 15 15 16 17 18 18 19 20 22 23 23 23 23
16 16 16 16 16 16 16 16 17 17 17 17 17 18 18 18 18 17 17 16 15 15 14 14 14 14 13 13 14 14 15 15 16 16 17 18 19 20 21 21 22 23 23
17 16 17 16 16 16 16 17 17 17 17 18 19 19 19 18 18 17 16 16 15 14 14 14 14 15 15 15 15 15 15 16 16 16 17 17 18 19 20 21 21 22 23
17 16 17 17 17 17 17 17 18 18 18 19 19 19 18 18 17 17 16 16 16 15 14 14 14 15 15 15 15 15 15 16 16 17 17 17 18 19 20 20 20 21 22
18 17 17 16 17 17 17 18 18 18 18 18 18 18 18 18 17 16 16 16 15 15 15 15 15 15 15 15 15 15 15 15 16 16 17 17 17 18 19 19 20 21 22
18 18 17 17 17 17 17 18 18 18 18 18 18 18 18 18 17 16 16 15 16 16 15 15 15 15 15 15 16 16 16 17 17 17 17 18 17 18 19 19 20 21 22
18 18 18 17 17 18 18 18 18 18 19 19 19 18 18 18 17 16 16 16 16 16 15 15 15 15 16 16 16 16 16 17 17 17 17 18 19 19 20 21 22 22 23
19 18 19 18 18 18 18 19 20 20 20 19 18 18 18 18 17 17 16 16 16 15 16 16 16 16 17 16 16 16 17 18 18 18 18 18 19 19 21 22 22 23 24
20 19 19 19 19 20 20 20 20 20 19 19 19 19 19 18 18 17 17 16 16 16 16 17 16 16 16 17 17 18 18 19 19 19 19 20 20 21 22 22 23 24 24
20 20 20 20 20 20 21 21 20 20 19 19 19 19 19 18 18 17 17 17 17 17 17 17 17 17 17 18 19 19 19 20 19 20 21 22 22 23 23 24 25 25 26
21 22 22 22 21 21 21 21 21 20 20 20 20 20 20 18 18 18 18 18 18 18 18 18 18 18 18 19 20 20 20 19 19 21 22 22 23 24 25 25 26 27 27
23 23 23 23 22 22 22 22 22 21 21 20 20 20 20 19 18 18 18 18 18 18 18 18 19 18 19 20 20 20 20 20 21 22 23 24 25 26 26 27 27 28 28
24 25 25 24 23 23 24 24 23 23 22 20 21 21 20 19 19 19 19 19 19 19 19 19 19 20 20 21 21 21 21 22 23 24 25 26 27 27 28 28 28 29 29
26 25 25 25 25 25 25 24 24 23 22 21 21 21 20 20 19 19 20 20 20 20 20 20 21 21 21 22 22 23 23 24 25 25 26 27 28 28 28 28 29 30 30
26 26 26 26 25 25 24 24 23 23 21 21 22 21 21 20 20 20 20 21 22 22 22 22 22 22 22 23 23 24 25 26 26 27 27 28 28 29 29 29 30 31 32
28 27 27 26 26 25 25 24 23 22 22 22 22 22 22 21 21 21 22 22 23 23 24 24 23 23 23 24 25 25 26 26 27 27 28 29 29 30 30 30 31 32 33

GEFSMW_500_meanwind_186.txt.gz
Wind_Speed
12 11 11 12 11 11 10 10 10 10 9 9 9 9 9 9 8 7 8 8 7 6 6 6 6 6 6 7 7 8 9 9 9 9 9 9 10 10 9 9 9 10 10
11 10 10 11 11 10 10 10 10 10 10 10 10 10 9 9 9 8 8 8 7 7 6 6 6 6 7 8 8 8 9 9 10 10 10 10 11 11 11 11 11 12 12
10 11 10 10 10 10 11 10 10 10 10 10 10 10 9 9 9 9 9 8 8 7 7 6 7 7 8 9 9 9 9 10 11 11 11 12 12 12 11 12 12 13 14
11 10 8 9 11 11 12 11 10 10 10 10 10 10 10 9 9 9 9 9 9 8 8 7 7 7 8 9 11 10 11 11 12 13 12 13 13 14 13 14 14 15 15
11 10 8 9 10 12 12 12 10 10 11 10 10 10 10 9 9 9 9 9 9 9 8 8 8 9 9 10 11 11 12 12 13 14 14 14 14 15 16 16 16 16 16
11 11 10 10 10 11 12 11 10 11 11 11 10 10 10 10 10 10 10 9 9 9 10 10 10 9 10 10 10 12 12 13 14 15 15 16 16 16 17 18 18 18 18
11 11 10 11 10 11 12 11 11 11 11 11 9 9 10 9 9 9 10 10 10 11 10 10 9 9 9 10 11 12 13 13 14 15 16 17 17 18 18 18 19 19 20
11 11 10 11 11 12 12 12 10 11 11 11 9 9 10 10 9 10 10 10 11 11 10 10 9 9 10 11 12 13 13 13 14 15 16 17 18 18 18 19 19 20 21
12 12 11 10 11 11 11 12 10 10 11 11 11 11 11 11 10 10 10 11 11 11 10 10 10 10 10 11 12 13 13 14 14 14 15 16 18 18 18 19 19 20 20
13 13 12 11 11 11 12 13 10 10 11 12 12 12 12 12 11 11 11 11 11 11 11 11 11 11 11 11 12 13 13 13 14 14 14 15 17 17 18 19 19 19 20
13 12 12 12 12 12 13 13 12 12 12 12 12 12 13 13 12 12 11 11 11 12 11 11 10 10 10 10 11 12 13 14 14 14 14 15 16 17 17 18 19 19 19
14 14 13 13 13 13 13 12 12 13 12 12 12 12 12 12 12 12 12 12 12 12 11 11 10 11 11 11 11 11 11 12 12 12 13 14 15 15 16 17 18 18 18
16 16 15 14 13 13 12 12 13 13 12 12 12 12 12 13 13 13 13 13 12 12 12 11 11 11 11 12 11 11 11 11 11 11 12 12 13 14 15 16 16 17 18
17 16 15 14 13 12 12 12 13 13 12 12 12 12 12 13 13 13 13 13 13 13 13 13 12 12 12 12 11 11 10 11 11 11 12 13 14 15 16 17 17 18 19
16 16 15 14 12 13 13 13 13 13 12 12 12 12 13 14 14 14 13 13 13 13 12 13 12 12 12 11 11 11 11 11 12 13 13 14 15 16 17 17 18 19 20
16 15 15 13 13 14 14 13 12 12 12 12 12 13 14 14 15 14 14 13 12 12 12 12 12 12 12 12 12 12 12 13 13 13 14 14 15 16 16 17 18 19 19
16 16 16 15 15 14 14 14 13 13 12 13 13 14 14 14 14 14 14 13 13 12 13 12 12 12 12 12 12 13 13 13 13 13 14 15 16 16 17 17 17 18 18
17 18 17 16 16 15 15 15 14 14 14 14 14 14 14 15 15 15 15 14 14 13 13 12 12 12 12 13 13 14 13 13 13 14 15 16 16 16 16 17 18 19 20
19 19 18 17 17 16 16 16 15 14 14 14 15 15 15 16 16 15 15 15 14 13 13 13 13 13 13 13 13 13 13 14 14 15 15 16 17 17 17 19 19 20 21
20 19 18 18 18 17 17 17 17 16 16 16 16 15 15 15 15 16 16 15 14 14 13 13 13 13 14 14 14 14 14 15 15 16 16 17 17 18 19 20 21 23 24
22 21 20 19 18 18 19 19 19 18 18 18 17 16 16 15 15 16 16 16 15 14 13 14 14 15 15 16 16 16 16 16 17 17 18 19 19 20 21 22 23 25 26
23 22 21 20 20 20 20 20 20 20 19 19 18 17 16 16 16 16 16 16 15 15 14 15 15 16 17 18 17 17 18 18 19 19 20 20 21 22 23 24 26 27 27
24 23 23 22 22 21 21 21 22 21 20 19 18 17 17 16 16 16 17 17 16 16 16 16 17 18 18 19 19 19 20 20 20 21 22 22 23 24 26 27 27 28 28
25 24 24 24 23 23 23 23 22 21 21 20 20 19 18 17 17 17 18 18 18 18 18 18 19 19 20 21 21 21 21 21 22 23 24 24 25 26 27 28 28 28 29
26 26 25 25 25 25 25 24 22 21 21 22 21 20 19 19 18 18 19 19 20 19 19 20 20 21 21 22 22 23 23 23 23 24 25 25 26 27 28 28 29 30 30
27 27 26 26 26 26 25 24 22 22 22 22 21 20 20 20 20 20 19 20 20 20 20 20 21 22 23 23 23 23 23 24 25 25 26 27 27 28 29 30 31 31 32

GEFSMW_500_meanwind_192.txt.gz
Wind_Speed
10 10 11 11 10 9 9 9 9 8 8 8 8 8 7 6 6 7 6 6 6 6 5 6 6 7 7 7 7 8 8 8 8 9 9 9 10 10 9 10 10 10 11
10 10 10 10 10 9 8 8 9 8 8 8 8 7 7 7 7 7 7 6 6 7 6 7 7 8 8 8 8 9 10 9 9 9 10 10 11 11 11 11 11 12 12
10 10 9 9 9 9 8 8 9 9 9 9 8 8 7 8 8 8 7 7 7 8 8 9 8 8 9 9 10 10 10 11 11 11 11 12 12 13 13 13 13 14 14
9 10 9 9 9 8 9 9 10 10 10 10 9 8 8 9 8 8 8 8 8 8 9 9 9 9 10 11 11 12 12 12 13 13 13 13 14 14 14 15 15 15 16
8 9 9 9 9 9 10 10 11 11 11 10 8 8 9 8 8 8 8 8 9 9 9 9 9 10 11 11 12 12 12 12 12 13 14 14 15 16 16 17 17 17 18
9 9 8 8 8 9 10 11 11 11 11 9 8 9 9 9 9 9 9 9 10 10 10 10 9 10 10 11 10 11 11 12 13 14 14 15 16 17 17 18 18 19 20
9 8 8 9 8 9 10 11 11 11 10 9 8 8 9 9 9 9 9 10 10 10 11 11 11 11 10 10 10 11 12 12 13 14 15 15 16 17 18 19 19 20 21
8 8 9 10 9 10 10 10 10 11 10 10 10 9 9 9 10 10 10 11 11 11 12 12 11 11 11 11 11 11 12 13 13 14 15 15 17 18 18 19 20 20 21
8 8 9 10 11 12 10 10 10 10 10 10 10 10 10 10 10 10 10 11 11 12 12 12 12 11 11 12 11 12 12 13 14 15 16 16 17 18 19 19 19 20 20
8 8 9 11 12 12 11 9 10 10 10 10 10 10 10 11 11 11 11 11 12 12 12 12 13 12 12 12 12 12 12 13 14 14 15 16 17 18 19 19 19 19 20
9 9 10 11 11 11 10 9 9 9 10 10 10 10 11 11 11 11 11 12 12 12 13 14 14 14 13 12 12 12 12 12 13 13 14 15 17 17 18 19 19 19 20
10 10 10 11 12 12 9 9 9 9 10 10 10 10 11 11 11 11 12 12 13 13 13 14 13 13 13 12 11 12 12 12 13 14 14 14 15 16 17 18 18 19 19
11 11 11 12 12 12 10 9 9 9 10 10 11 11 11 11 12 13 13 13 13 13 13 13 13 13 13 13 12 12 12 13 13 14 15 15 16 17 17 18 18 18 19
12 12 12 12 13 12 12 11 10 10 11 11 12 12 12 13 14 14 14 14 14 14 14 14 14 14 13 13 13 13 13 14 14 15 15 16 16 17 17 17 18 19 20
14 14 14 13 13 13 12 12 12 12 12 13 13 14 14 14 15 15 15 15 15 14 14 14 14 14 13 13 13 13 14 15 15 15 15 16 16 17 17 18 19 20 20
15 14 14 13 13 13 12 12 12 13 13 13 14 14 14 15 15 15 16 16 16 15 14 14 14 14 14 13 14 14 14 15 15 15 16 16 17 18 18 19 20 20 21
15 15 14 13 13 13 13 13 13 14 14 14 15 15 15 15 15 16 16 16 16 16 16 15 15 15 15 14 14 14 15 15 16 17 17 17 18 19 19 19 20 21 22
16 16 15 14 14 13 13 14 14 15 15 16 17 16 16 16 16 16 16 16 16 16 16 16 15 15 15 15 15 15 16 16 16 17 18 19 19 19 19 20 21 21 22
18 17 17 16 15 14 14 15 16 16 17 18 18 17 17 17 17 17 17 17 17 16 16 15 16 16 16 16 16 16 16 17 18 18 19 20 20 20 20 21 22 23 24
20 19 18 18 16 16 16 16 17 18 19 19 19 19 19 18 18 18 18 18 17 17 16 15 15 16 16 17 17 17 18 18 18 19 20 21 21 22 22 23 24 25 26
22 21 20 20 19 18 17 17 19 20 20 20 20 20 19 19 18 18 18 18 18 17 16 16 16 17 18 18 18 19 19 20 21 21 22 23 23 24 24 25 26 27 28
23 22 21 19 18 18 18 19 20 21 21 21 21 20 19 20 20 19 19 18 18 17 17 17 18 18 19 19 20 21 21 22 22 23 23 24 24 25 26 27 28 28 29
23 22 22 21 20 20 19 20 21 21 22 22 21 21 21 21 21 20 20 19 19 18 19 19 20 20 20 20 21 21 22 23 24 24 24 25 26 27 28 28 28 29 30
25 24 23 23 23 22 21 21 22 22 22 22 22 22 22 22 22 21 21 20 20 20 20 21 21 21 21 21 22 23 24 24 25 26 26 27 27 28 28 29 29 29 30
27 26 25 24 24 23 22 22 22 22 23 23 23 23 23 23 22 21 22 22 22 22 22 22 23 23 23 23 24 25 26 26 27 27 28 28 28 29 29 30 30 30 30
28 27 25 24 24 23 23 23 23 23 24 24 24 24 24 24 23 23 23 23 23 23 23 24 24 24 24 25 26 26 27 27 27 28 28 28 29 29 29 30 30 30 31

GEFSMW_500_meanwind_198.txt.gz
Wind_Speed
10 10 10 10 10 11 11 10 10 10 10 8 8 8 7 7 7 6 6 6 6 5 5 4 4 5 6 6 7 8 8 9 10 9 10 10 10 10 11 11 11 11 10
10 9 9 9 10 11 11 10 11 10 10 9 8 8 9 8 8 8 7 6 6 7 6 6 6 7 7 7 8 8 9 9 11 11 11 10 11 11 12 12 13 13 12
9 9 9 9 10 10 10 10 10 10 10 9 9 9 9 9 9 8 7 6 7 7 8 8 7 7 7 8 8 9 9 9 10 11 11 11 12 13 14 14 14 15 14
9 9 9 9 9 9 9 10 11 11 11 9 9 9 9 10 9 8 7 7 7 7 8 9 9 8 8 8 8 9 10 10 11 12 12 12 13 14 15 15 15 15 16
8 9 9 9 8 8 9 10 11 11 11 10 9 9 9 9 9 8 8 7 7 8 8 9 10 10 10 9 9 9 10 11 11 11 12 13 14 15 16 16 17 17 18
9 8 9 8 8 9 10 10 11 12 12 11 10 9 9 9 9 9 9 8 8 8 9 10 10 11 11 10 9 9 10 11 12 12 13 14 15 16 16 17 18 19 19
9 8 8 8 8 9 10 11 12 12 11 11 10 10 9 9 10 10 9 9 8 9 10 10 11 11 11 11 10 10 10 11 11 12 13 14 15 16 17 17 18 19 19
9 8 8 8 8 10 11 12 11 11 11 11 10 10 9 9 9 10 9 9 10 10 10 11 11 12 11 12 12 11 10 11 11 12 13 14 15 16 17 17 18 18 19
8 8 8 8 9 10 11 11 11 11 11 10 9 9 8 9 9 9 9 10 11 12 12 12 12 12 12 12 12 12 11 11 12 12 13 13 15 16 16 17 17 18 19
8 8 8 9 9 10 11 11 11 10 10 9 9 9 9 9 9 9 10 11 12 12 12 13 13 12 12 12 12 12 12 12 12 13 13 14 15 16 16 17 18 19 19
9 9 9 9 10 10 10 10 10 10 10 9 9 10 10 10 10 10 11 11 12 13 13 13 13 13 13 13 13 12 12 12 12 13 14 14 15 16 17 17 18 19 19
10 10 10 9 9 10 10 10 10 10 10 10 10 10 10 11 11 11 12 12 13 13 14 14 14 13 14 13 14 13 13 13 13 13 14 14 15 16 17 17 18 19 20
11 12 11 10 10 10 11 11 10 10 10 10 10 11 11 12 12 13 14 13 13 14 14 15 14 14 14 14 14 13 13 12 13 13 14 14 15 16 17 18 18 18 19
13 12 12 11 11 11 11 11 10 10 10 11 11 11 12 13 13 14 15 14 14 14 15 15 15 14 14 14 14 14 13 13 13 14 14 15 16 16 16 17 18 18 18
14 13 13 12 11 11 11 11 10 11 11 11 11 12 13 14 14 15 15 15 15 15 15 16 16 15 15 15 14 14 14 14 14 15 15 16 16 17 17 18 18 18 19
16 14 14 13 12 12 12 11 11 12 12 12 13 13 14 15 15 16 16 15 15 15 16 16 16 16 16 16 16 16 16 15 15 16 16 17 18 18 18 18 19 20 20
17 16 15 14 14 13 13 12 12 13 13 13 14 15 15 16 16 17 17 17 16 16 16 16 17 16 16 16 16 17 16 16 16 17 17 18 18 18 19 20 21 22 22
18 17 17 16 16 15 15 14 14 14 14 15 15 16 16 16 17 18 18 18 18 18 18 17 17 17 17 17 18 17 17 17 17 18 18 19 19 19 20 21 22 22 23
19 19 18 18 17 17 16 16 17 16 16 16 16 17 17 17 18 19 19 18 18 18 18 17 17 17 18 18 18 18 18 18 18 19 19 20 21 21 21 22 23 24 24
21 20 20 19 18 18 18 18 18 18 18 18 18 17 18 18 19 19 19 19 19 18 18 18 19 19 19 18 18 18 19 19 19 20 21 21 22 22 22 23 24 24 25
23 22 22 21 20 20 19 19 19 20 20 19 19 19 19 19 19 19 20 20 20 19 19 20 20 19 19 19 19 20 20 20 21 22 22 23 23 24 24 24 25 25 26
24 23 23 22 21 21 21 21 21 21 21 20 20 20 19 19 19 20 20 20 20 20 20 21 20 20 20 20 21 21 22 22 23 23 23 24 24 25 25 26 27 27 27
24 24 24 23 23 23 22 23 22 21 21 21 21 20 20 20 20 21 21 22 21 21 21 21 22 22 22 22 23 23 23 24 24 24 25 25 26 26 27 27 27 28 28
25 25 25 24 24 24 24 23 23 22 21 21 21 21 21 21 21 22 23 23 23 22 22 22 23 23 24 24 24 25 25 25 25 26 26 26 26 27 28 27 27 27 27
26 26 26 26 26 25 25 24 23 23 22 22 22 22 22 22 23 24 24 24 24 23 24 24 24 25 25 25 26 26 26 26 27 27 27 27 27 27 27 27 27 27 27
27 27 28 28 27 26 26 25 24 24 24 23 23 23 23 23 24 25 25 24 25 25 25 25 26 26 26 26 27 27 27 28 28 28 28 27 27 27 27 27 27 27 28

GEFSMW_500_meanwind_204.txt.gz
Wind_Speed
13 13 13 13 13 14 14 14 14 13 13 13 13 13 12 10 9 7 6 6 6 6 6 6 6 6 6 6 6 6 7 7 7 8 8 10 10 10 10 10 10 9 10
13 13 12 13 13 13 13 14 14 14 13 13 13 13 13 11 10 8 7 7 7 6 7 7 8 7 7 6 6 6 7 8 8 8 9 9 10 11 12 12 12 11 12
12 12 12 12 12 13 13 13 14 13 14 14 14 14 12 11 10 9 8 8 7 7 8 8 8 7 7 6 6 6 7 8 9 9 9 10 11 13 12 13 13 13 13
12 12 12 12 12 12 12 13 13 13 13 14 14 13 12 12 11 10 9 9 8 8 8 9 8 8 7 7 7 7 7 8 9 10 10 10 11 13 13 13 14 14 14
11 12 12 12 12 12 12 13 13 13 13 14 13 12 12 12 11 10 10 9 9 9 8 9 10 9 8 8 8 8 8 8 9 10 10 11 11 12 13 14 14 14 15
12 11 11 11 12 12 12 13 13 13 13 13 13 12 12 11 11 10 10 10 10 10 9 9 9 9 9 9 9 9 9 9 9 10 11 11 11 12 13 14 14 15 15
11 11 11 10 11 12 13 13 13 13 13 12 13 12 11 10 11 11 10 10 10 10 10 10 10 10 10 10 10 10 10 9 10 11 11 12 12 13 13 13 14 15 16
10 10 10 10 11 11 12 13 13 13 13 13 12 12 11 11 11 11 10 10 10 11 11 11 11 11 11 12 12 11 11 11 11 12 12 12 13 14 13 13 14 15 16
10 10 10 10 11 11 12 13 13 12 12 12 13 13 12 11 12 12 11 11 11 11 12 12 12 12 13 13 13 12 12 12 12 12 12 12 13 13 14 14 14 15 16
10 11 10 10 11 11 12 13 12 12 12 12 12 13 12 12 12 11 11 11 12 12 13 13 13 13 13 14 14 14 14 13 13 13 13 13 13 14 14 15 16 17 17
9 11 11 11 11 12 12 12 12 12 12 11 12 12 12 13 12 12 12 12 13 13 14 14 14 15 14 14 15 15 14 13 13 14 14 14 14 14 14 15 16 16 17
11 12 12 11 11 11 11 12 12 12 12 12 13 13 12 13 13 12 13 13 14 14 14 15 15 15 15 15 15 15 14 14 14 14 14 14 14 14 15 16 16 17 17
12 13 13 12 12 12 12 12 13 13 13 13 13 13 13 13 13 14 14 14 15 15 15 15 16 16 16 16 15 15 15 15 15 15 15 15 15 15 16 16 17 17 18
14 14 14 14 13 12 12 13 13 14 14 14 14 14 14 14 15 15 15 16 16 16 16 16 16 17 17 17 16 16 15 16 15 15 16 16 16 16 17 18 18 18 18
15 15 15 14 13 13 13 13 14 14 14 15 15 15 15 15 16 16 17 17 17 17 17 17 17 17 17 17 17 17 17 17 17 17 17 17 17 17 18 18 19 19 19
17 16 15 15 15 15 14 15 15 15 16 16 16 16 16 17 17 18 18 18 18 18 18 18 18 18 18 18 18 18 18 18 18 18 18 18 18 19 19 20 20 20 20
18 17 16 16 16 16 16 16 17 17 17 17 17 17 17 18 18 19 19 19 19 19 19 19 18 18 18 18 18 18 18 18 18 19 19 19 19 20 20 20 20 21 21
19 18 17 17 18 18 18 18 18 18 18 19 19 19 19 19 19 20 20 19 19 19 19 19 18 18 18 18 18 19 19 19 19 19 20 20 20 20 21 21 22 22 23
20 19 18 18 19 19 19 19 19 20 20 20 21 20 20 20 21 21 20 20 20 19 19 19 19 19 19 18 19 19 19 20 21 21 21 21 21 21 22 22 23 23 24
22 21 20 20 20 20 20 20 20 21 21 22 22 22 21 22 21 21 20 20 20 20 20 19 19 20 20 20 20 20 21 21 21 22 22 22 22 23 23 24 24 24 24
24 23 21 21 21 21 21 22 22 22 23 23 22 22 22 23 22 22 22 21 21 22 21 21 21 21 21 22 21 21 22 22 22 22 23 23 23 24 24 25 25 25 25
25 24 23 23 23 24 24 24 23 23 24 24 23 23 23 23 23 23 23 22 22 22 23 23 23 23 23 22 22 23 23 24 24 24 24 24 24 25 25 25 25 25 25
27 26 25 25 25 25 25 25 25 25 25 25 25 24 24 24 24 24 24 24 23 24 24 24 24 24 23 23 24 25 25 25 25 25 25 25 25 26 25 25 25 26 26
29 28 28 27 27 27 26 26 26 26 26 26 26 25 24 24 25 25 25 25 25 25 25 25 25 24 25 25 26 26 26 26 26 26 26 26 26 25 25 26 26 26 26
30 29 29 29 28 28 27 27 27 27 27 27 26 26 25 26 26 27 27 27 26 26 26 26 26 27 27 27 27 28 28 28 27 27 27 27 27 26 26 26 26 26 26
30 30 30 29 29 29 29 28 28 28 28 27 27 27 27 27 28 27 27 27 28 28 28 28 28 28 29 29 29 29 29 28 28 28 28 28 28 27 26 26 26 25 25

GEFSMW_500_meanwind_210.txt.gz
Wind_Speed
12 12 12 12 12 12 12 12 12 13 13 13 13 12 11 10 9 8 7 6 4 3 3 3 2 2 2 3 3 4 3 4 5 6 7 8 9 10 11 12 12 12 11
11 11 11 11 11 12 12 13 13 13 13 12 12 12 11 10 9 8 7 6 4 4 4 3 3 3 3 2 3 4 5 5 5 6 7 8 9 10 11 12 12 12 13
10 10 11 10 10 11 12 12 12 12 12 12 12 12 12 10 9 8 7 7 5 5 4 4 4 3 3 3 3 4 5 6 6 7 8 8 9 10 11 11 12 13 13
9 9 10 10 10 11 12 12 12 12 12 12 11 12 12 11 10 9 8 7 6 5 5 5 5 4 4 4 4 4 5 6 7 7 8 9 10 11 12 13 13 14 15
8 8 9 9 9 10 10 11 11 11 11 11 11 11 11 10 10 9 9 7 7 6 6 5 5 4 5 5 5 6 6 7 7 8 8 9 10 11 12 13 13 14 15
7 8 8 8 9 9 10 10 11 11 10 10 10 10 10 10 10 10 9 8 7 7 7 7 6 6 6 6 7 7 8 8 9 9 10 10 10 11 11 12 12 13 14
6 6 7 8 9 9 9 10 10 10 10 9 9 9 9 10 10 10 9 8 7 7 7 7 7 7 7 7 8 8 9 9 9 10 10 10 10 11 11 12 13 14 14
5 5 6 7 8 9 9 9 9 9 9 9 9 9 9 9 9 9 9 9 8 8 8 8 8 9 9 9 9 9 10 10 10 10 10 10 11 11 11 12 13 13 14
5 5 5 6 8 8 9 9 9 9 10 10 9 9 9 9 9 9 9 9 9 9 9 10 10 10 10 10 11 10 11 11 11 11 11 11 12 12 13 13 13 14 14
5 4 5 6 7 8 8 9 8 8 10 10 9 9 10 10 9 9 9 9 9 10 10 11 11 11 12 12 12 12 11 11 11 11 11 11 12 12 13 13 13 13 14
5 5 5 6 6 7 8 8 9 9 9 9 9 9 10 10 10 10 10 11 11 11 11 12 12 13 13 14 13 13 12 13 13 12 12 11 12 12 12 13 13 14 15
6 6 6 7 7 7 7 8 9 9 9 9 9 10 10 10 11 11 12 12 12 12 13 13 14 14 14 14 13 14 13 13 13 13 12 12 12 12 12 13 13 14 15
7 7 8 7 7 7 8 9 9 9 9 9 10 10 11 11 11 12 12 13 13 13 14 14 14 14 14 14 14 14 14 14 13 13 13 13 13 13 13 13 14 15 16
10 9 8 8 8 8 9 9 10 9 9 9 10 11 12 12 12 12 13 14 14 14 14 15 15 14 14 14 14 14 14 14 13 14 13 13 14 14 14 14 15 16 16
13 12 11 9 9 9 9 10 10 10 10 10 11 12 12 13 13 13 14 14 14 15 15 15 14 14 15 15 15 14 15 14 14 14 14 14 15 15 16 16 16 17 17
15 13 12 11 10 10 10 11 11 11 11 12 12 13 13 14 15 15 15 14 14 15 15 16 15 15 15 15 15 15 14 14 14 14 14 15 15 16 17 17 17 18 18
18 16 14 12 12 12 12 12 12 12 13 13 13 14 14 15 15 15 15 15 15 15 15 16 16 16 16 16 15 15 15 15 16 15 15 16 16 17 17 18 18 19 19
20 18 15 14 14 13 13 13 13 13 13 13 14 15 15 15 15 16 16 16 16 16 16 16 17 17 17 17 17 17 17 17 17 17 17 18 18 19 19 19 20 20 21
21 20 18 17 16 15 15 15 15 15 15 15 16 16 16 16 16 17 17 17 16 17 17 18 18 18 17 17 18 18 18 18 18 19 19 20 20 20 21 21 21 21 22
24 21 20 19 18 17 16 16 16 16 17 17 18 17 17 17 18 18 18 17 18 18 18 18 19 19 19 19 19 19 19 20 20 20 20 21 21 21 22 22 22 22 22
25 22 21 20 20 19 18 18 17 17 18 19 19 18 18 19 19 18 18 18 19 19 19 19 20 20 20 20 20 21 21 22 22 22 22 22 23 23 23 23 23 23 24
25 24 23 22 21 21 20 20 20 19 20 20 20 20 20 20 20 20 20 20 20 20 20 20 20 21 21 21 22 22 23 23 23 23 24 24 24 24 24 24 24 24 24
28 27 25 23 23 23 22 22 21 21 21 21 22 22 22 22 21 21 22 21 22 22 22 22 22 22 23 23 23 24 24 24 24 24 25 25 24 24 24 25 25 25 25
29 28 27 26 25 25 24 23 23 24 23 23 24 24 24 23 23 23 23 23 23 23 23 23 23 23 24 24 24 24 24 24 24 25 25 25 25 25 24 25 25 25 25
30 29 28 28 27 27 26 25 25 25 25 25 25 25 25 25 25 24 24 24 24 24 24 24 24 24 25 25 25 25 24 24 25 25 25 25 25 25 25 25 25 25 25
31 30 30 28 28 27 27 26 26 27 27 27 27 26 26 26 25 24 24 24 24 25 25 24 25 26 25 25 25 24 25 25 25 25 25 25 25 25 26 26 26 26 26